RH
6 7 7 7 7 8 8 8 8 7 6 6 5 4 4 3 2 2 2 2 2 2 2 4 4 5 5 8 13 16 43 32 22 57 50 30 32 27 25 21 21 22 22 11 22
7 7 7 7 8 8 8 8 8 7 7 6 5 4 3 2 2 2 3 2 2 3 3 4 6 7 6 8 22 43 37 16 34 40 40 38 37 32 30 24 26 23 20 12 19
8 8 7 8 8 8 8 8 8 7 6 5 4 3 2 2 2 4 3 3 3 4 4 5 8 27 32 57 45 53 26 32 27 45 45 43 41 38 34 30 24 21 17 14 18
8 8 7 8 8 8 8 8 8 7 6 5 4 3 2 2 4 3 4 4 6 9 8 7 9 16 82 91 91 88 68 41 50 44 47 48 44 40 39 35 33 31 18 17 22
9 8 8 8 8 8 8 8 8 6 6 4 3 3 2 2 4 9 8 8 9 11 13 11 27 62 42 78 94 83 72 67 59 44 56 56 47 43 42 36 40 38 26 16 18
11 9 8 8 8 8 8 8 7 6 5 4 3 3 3 4 13 12 20 27 25 22 18 19 28 57 93 85 91 76 73 64 58 49 52 61 46 41 40 39 39 39 33 28 18
12 9 8 8 8 8 8 8 7 6 4 4 3 3 4 10 19 34 42 45 44 49 48 30 38 51 69 82 79 89 82 83 56 54 58 61 44 46 38 41 39 37 34 29 23
14 9 8 8 8 8 8 8 7 5 4 4 3 5 9 30 44 59 51 42 52 53 78 76 47 65 84 84 79 75 97 64 61 53 54 57 54 54 49 52 41 38 36 31 27
15 11 8 8 8 8 8 8 6 5 5 4 7 11 34 58 95 58 50 45 60 69 74 99 99 69 46 95 82 71 64 74 64 50 54 57 59 45 52 53 43 40 37 33 29
18 12 8 8 8 8 8 8 6 5 6 5 16 33 76 50 44 44 61 75 75 68 73 98 98 81 62 94 96 74 61 56 54 48 48 51 56 40 46 53 47 45 39 34 32
19 12 8 7 7 8 8 7 6 6 5 9 24 41 52 44 44 62 94 92 89 84 84 94 95 92 70 67 97 62 56 45 45 44 49 49 56 41 62 59 62 63 46 38 37
22 13 9 8 7 8 8 6 4 5 3 27 43 52 53 65 70 92 92 99 96 93 95 98 96 73 88 68 62 69 61 59 43 52 60 54 57 50 66 62 57 64 53 43 42
25 14 10 8 8 9 8 6 6 6 12 66 70 52 53 84 90 90 93 92 92 92 92 98 80 95 92 86 78 76 82 67 56 74 89 68 61 57 58 62 57 61 67 52 44
25 16 12 9 9 9 7 6 6 12 47 67 68 78 69 73 87 88 94 95 92 93 92 86 81 83 83 78 87 98 95 94 84 70 78 65 76 59 70 78 69 58 69 62 53
28 17 13 9 9 9 6 7 8 39 92 60 58 59 56 88 83 86 85 90 94 91 98 93 95 91 78 71 91 90 100 90 94 79 62 71 65 58 64 81 85 62 67 57 51
27 19 14 10 11 8 8 8 26 83 79 51 54 53 71 84 84 90 97 96 92 79 82 90 90 89 83 74 79 97 96 90 94 97 94 72 66 48 58 63 70 70 61 55 49
26 20 14 11 10 7 8 16 63 67 56 68 54 70 95 68 75 93 93 92 97 98 88 98 89 83 90 96 85 74 68 97 93 96 87 66 68 63 75 77 75 74 48 49 48
27 21 13 11 9 9 11 32 62 82 84 75 81 78 73 82 70 93 89 77 90 92 97 96 92 86 84 92 88 77 67 76 94 92 88 65 64 75 68 68 71 76 74 56 55
30 23 14 12 10 11 12 33 85 82 91 86 64 77 81 74 91 84 93 78 94 98 96 96 97 92 82 80 75 86 76 83 88 83 72 68 72 68 70 70 66 75 79 75 72
32 24 15 13 11 14 16 70 66 58 76 84 94 90 96 84 86 91 80 90 85 99 98 97 97 94 94 89 83 80 95 80 65 94 95 86 71 74 66 61 68 68 78 79 83
34 25 18 14 14 15 22 26 35 64 93 87 91 97 98 97 91 99 86 89 90 86 97 97 100 90 96 92 92 87 87 76 75 59 94 76 96 75 69 57 58 67 62 72 84
37 25 20 14 17 19 26 24 37 59 86 94 97 94 97 82 86 99 94 89 98 97 95 98 98 98 93 91 90 90 89 78 76 82 65 74 79 66 59 53 63 71 68 67 75
38 26 21 18 19 26 27 39 46 60 69 80 89 100 90 83 94 81 92 86 90 91 96 96 97 97 99 86 84 95 95 85 75 82 77 82 80 78 62 69 70 76 75 72 76
40 29 23 26 23 28 25 38 54 63 72 77 84 97 67 65 84 90 82 62 72 79 90 98 97 96 96 95 100 99 87 89 88 79 90 71 78 81 76 77 80 75 75 76 78
40 32 28 25 27 32 26 40 55 59 70 74 88 95 88 88 85 93 70 52 70 67 76 89 97 97 92 81 90 85 81 80 89 85 87 76 66 71 70 73 73 78 67 62 59
43 38 30 26 29 32 29 38 50 59 71 80 75 74 70 100 99 92 90 90 76 57 70 81 100 97 87 77 79 82 85 93 95 84 75 76 66 74 68 65 64 64 63 63 61
50 43 35 30 30 36 34 33 42 55 75 79 74 83 70 80 78 77 80 78 80 82 74 81 82 88 96 79 80 79 80 89 96 95 90 85 80 74 72 71 69 69 66 59 57
Wind_Speed
20 20 20 21 21 21 22 23 24 26 28 30 33 35 37 36 35 33 30 36 25 23 25 27 30 30 27 32 32 30 35 43 42 30 23 19 18 20 23 20 23 28 28 25 21
20 22 22 23 22 22 23 25 27 29 31 32 34 36 37 37 37 38 34 28 26 23 26 31 34 34 34 36 35 35 42 51 37 23 22 17 23 18 23 24 27 31 28 25 20
21 22 22 24 25 25 26 28 29 30 33 35 38 38 39 36 43 44 30 29 29 27 28 31 35 31 34 33 37 37 51 38 33 25 23 24 23 20 18 22 30 29 26 25 24
22 22 23 24 26 28 29 31 32 32 35 37 39 43 40 39 27 38 40 35 31 28 27 26 26 28 32 37 38 36 41 40 26 20 27 30 28 24 19 19 21 27 24 26 23
25 26 26 26 28 30 31 32 34 34 38 39 41 42 41 39 37 29 37 35 27 29 31 35 32 31 36 37 37 37 40 28 23 31 24 30 35 28 21 23 18 26 25 27 26
26 28 29 29 30 31 32 33 35 37 39 40 40 41 39 37 33 33 26 22 23 25 28 32 35 30 35 33 39 36 37 33 31 23 32 26 31 27 26 29 26 26 24 23 28
27 28 29 31 32 33 34 36 37 39 40 40 42 40 38 29 27 21 23 20 19 21 23 22 23 28 33 31 31 38 35 34 28 24 26 21 29 29 27 27 27 28 27 24 28
28 29 31 32 34 36 37 38 41 41 43 40 42 39 30 26 16 20 23 26 26 24 21 19 20 24 32 26 26 28 35 28 25 34 24 27 32 23 23 24 25 24 23 24 27
27 29 31 34 36 39 40 41 44 44 38 44 41 32 18 13 15 23 25 28 24 21 20 24 18 25 26 30 35 25 23 29 29 27 25 28 23 22 26 22 23 25 25 25 28
29 30 32 35 38 41 43 45 45 50 44 44 30 18 8 21 24 27 25 19 22 22 19 18 18 20 27 31 18 24 26 23 32 26 33 27 29 17 31 26 23 23 23 25 27
30 31 32 35 38 41 45 48 52 50 46 38 16 11 15 20 23 20 23 25 18 14 12 13 17 23 28 32 24 23 24 29 29 28 32 35 29 22 21 24 22 18 24 22 25
31 31 32 35 38 41 44 45 45 46 51 18 17 12 19 23 26 23 21 23 18 18 10 16 19 16 17 24 30 22 25 21 20 25 31 32 29 24 22 24 26 26 30 29 26
32 32 32 35 37 40 43 43 41 39 34 13 16 22 22 25 27 22 27 24 21 21 13 17 16 8 18 19 25 32 32 30 21 20 20 19 21 24 27 21 27 30 31 34 30
33 32 34 34 37 39 40 39 38 31 12 11 14 9 23 22 11 29 22 26 23 17 11 11 13 20 12 21 24 25 28 29 19 26 14 21 5 24 23 23 27 35 37 37 33
34 33 33 36 39 38 39 38 33 18 4 18 16 22 19 19 27 19 26 27 16 12 8 9 7 6 11 26 20 16 14 22 14 22 15 16 4 16 32 29 29 29 32 32 30
33 33 33 32 35 38 36 34 20 8 4 16 18 21 21 23 16 19 24 19 11 9 8 4 5 5 8 18 25 13 12 13 8 14 4 14 13 9 25 37 32 34 36 33 30
31 31 33 35 35 34 34 28 9 7 19 15 24 21 21 27 21 27 26 25 24 10 2 3 4 4 8 15 12 9 14 3 2 1 3 16 12 5 12 24 26 30 37 35 32
29 29 30 32 33 31 30 20 8 10 15 18 16 20 15 27 20 24 22 34 24 19 2 2 3 3 7 8 4 13 9 5 2 3 2 11 8 7 13 11 24 31 28 25 28
28 28 28 28 29 28 25 15 7 13 16 19 14 15 17 22 14 22 20 27 25 22 15 11 6 1 7 8 8 8 7 2 1 3 4 8 5 7 10 13 16 26 27 23 26
26 26 25 27 26 24 18 6 4 12 13 10 11 11 19 23 22 20 25 17 30 18 7 8 1 4 2 10 5 8 7 3 1 1 2 4 8 8 9 11 17 17 24 24 25
24 27 23 25 23 21 17 9 8 9 11 9 11 13 15 20 17 15 22 14 27 20 9 5 6 4 5 3 9 7 6 3 1 2 2 1 2 6 5 6 13 18 16 23 27
22 22 20 22 19 21 15 13 10 8 7 6 7 13 12 17 15 12 20 20 22 24 14 9 5 4 2 4 2 7 7 9 2 4 2 5 1 6 6 8 11 18 13 15 22
20 19 18 17 18 18 16 13 11 9 8 8 6 11 15 11 9 11 16 14 14 22 17 10 6 1 1 2 1 1 5 10 4 6 5 3 1 6 3 7 9 12 12 12 14
19 15 17 13 17 15 14 12 10 8 8 10 5 13 15 9 9 9 17 14 12 15 15 5 7 5 3 2 2 3 5 6 5 2 2 3 9 7 7 9 12 12 11 11 12
16 13 15 15 15 12 13 11 9 11 8 9 5 10 13 13 16 7 19 15 7 13 12 7 5 3 4 3 2 0 5 8 6 2 1 13 10 12 12 11 10 9 8 8 8
14 13 14 12 12 10 10 10 9 9 9 9 11 10 12 11 15 21 20 16 10 11 9 7 4 3 3 3 2 2 3 10 9 6 9 11 7 9 7 5 3 3 4 7 9
15 13 13 11 10 8 9 8 9 10 8 11 14 17 13 14 16 16 16 14 12 12 9 5 4 4 1 2 1 1 0 6 10 8 10 9 6 8 7 6 7 7 9 11 13
Wind_Direction
346 345 346 343 343 340 335 332 331 329 328 332 333 332 330 328 323 319 312 309 301 285 269 260 259 260 255 250 245 235 231 241 238 229 240 219 250 230 231 211 223 234 227 244 220
343 342 344 343 340 337 336 333 331 331 331 330 330 330 327 324 318 313 317 302 295 274 262 255 253 255 250 246 236 222 233 241 241 237 239 243 251 237 234 215 221 227 233 240 233
339 338 341 341 339 338 335 333 333 333 330 330 329 328 325 321 318 315 316 296 292 276 262 250 243 237 244 240 234 232 239 247 240 208 235 233 228 207 237 226 234 238 232 233 229
334 337 341 340 339 338 338 336 334 333 331 330 329 328 324 321 314 306 300 295 285 270 251 238 238 238 225 230 234 232 244 244 219 224 243 240 226 209 223 216 217 242 225 230 229
340 339 339 341 341 342 340 336 333 333 330 330 329 326 321 317 312 298 295 288 279 268 255 247 247 261 240 224 233 230 239 239 249 214 242 237 230 229 222 232 225 224 231 223 223
340 338 337 339 342 343 340 337 334 333 332 330 329 323 319 316 305 302 297 297 292 282 271 258 253 239 244 239 227 237 236 240 233 242 237 234 226 234 229 230 225 227 236 234 218
341 337 336 337 340 342 340 338 336 334 333 330 328 322 319 311 303 299 304 306 299 294 287 269 253 244 235 236 227 230 240 235 235 233 224 230 230 230 232 234 231 231 232 226 214
340 337 336 338 339 340 339 340 335 336 332 331 326 322 318 307 304 306 307 310 302 294 294 283 251 247 228 234 221 231 231 226 226 219 225 219 230 213 215 221 226 228 224 219 214
340 338 336 338 339 339 340 339 336 333 335 334 329 322 326 321 321 311 308 306 298 292 277 265 266 235 231 232 222 215 223 225 232 215 210 209 230 210 227 226 220 222 223 216 212
340 339 338 339 338 338 339 338 337 333 342 334 330 320 303 314 314 321 317 316 315 301 283 243 251 231 229 226 235 197 210 215 222 220 215 216 224 192 224 216 215 215 216 211 211
342 340 340 338 338 339 339 337 336 339 336 330 336 310 323 319 317 342 315 314 320 314 301 232 235 229 231 233 231 210 207 209 213 212 204 208 222 206 205 198 184 207 218 203 204
341 340 340 337 338 338 337 341 340 334 334 337 353 339 333 335 326 331 316 312 311 305 290 264 234 251 247 236 230 220 238 242 222 197 190 200 216 220 223 216 205 195 225 214 204
340 339 340 336 339 338 340 342 342 335 332 357 4 339 347 337 323 322 322 332 318 311 275 260 256 254 239 235 232 223 237 234 224 192 191 187 211 216 218 225 215 206 215 228 219
338 339 338 338 338 340 342 343 340 334 337 8 348 322 334 341 339 323 333 330 320 304 315 265 255 248 242 235 229 212 230 233 189 179 179 191 202 207 199 191 208 212 207 218 226
337 338 340 340 338 340 343 344 341 339 21 347 348 326 342 350 328 332 341 331 322 284 278 312 332 272 256 225 203 227 215 212 225 183 169 191 190 217 212 215 219 220 214 217 220
334 337 338 339 340 343 343 345 344 9 336 337 331 342 8 347 5 342 345 5 342 311 262 325 346 348 314 223 197 169 160 179 212 166 150 189 190 218 212 217 226 227 219 221 221
332 337 336 339 341 344 347 350 18 36 321 332 343 4 7 348 10 352 3 16 13 339 194 129 49 54 83 121 142 161 168 96 144 134 188 175 194 264 192 205 214 222 222 222 224
331 335 335 338 344 345 351 15 54 328 334 352 357 7 8 353 7 358 7 13 16 16 47 342 117 121 131 120 157 168 145 97 126 178 136 162 209 191 213 214 215 220 230 221 214
330 333 336 341 343 351 359 32 10 333 334 342 13 359 352 359 9 5 10 15 11 13 6 8 33 156 194 162 143 181 207 199 13 10 129 180 176 206 220 215 215 222 222 218 209
330 332 336 341 346 353 6 29 353 335 341 354 2 355 348 355 8 15 12 354 7 10 2 359 350 14 352 177 175 160 157 169 222 130 187 219 151 152 207 213 204 217 223 221 209
326 332 339 342 348 358 23 11 356 344 344 1 359 345 341 355 3 12 4 2 1 8 21 7 16 9 81 111 192 185 179 171 262 295 96 158 76 165 204 229 205 210 213 209 210
322 333 335 341 351 6 13 3 354 352 341 345 345 346 337 5 348 4 360 351 2 4 0 21 47 57 105 76 146 222 197 203 138 358 325 114 57 332 235 226 199 199 204 199 203
319 330 338 345 3 10 7 8 353 353 349 5 345 339 340 8 339 335 346 338 348 9 5 5 9 309 38 100 99 33 127 202 265 301 359 30 43 17 125 166 180 176 189 186 189
321 329 341 348 3 7 7 7 7 351 346 347 352 329 347 12 353 314 328 347 347 6 3 10 6 32 30 342 125 188 174 159 184 165 297 50 118 87 95 130 143 144 152 160 168
319 329 339 338 360 4 7 2 3 3 342 353 343 326 352 343 342 301 332 341 355 5 3 26 1 354 353 23 149 162 190 205 180 134 360 148 138 117 105 110 121 130 140 157 173
308 323 332 337 350 356 1 5 356 354 341 350 343 333 336 334 304 314 324 337 333 350 355 9 357 18 34 33 69 106 181 195 190 141 126 173 154 151 144 135 125 161 204 221 227
302 314 324 332 339 340 354 349 347 348 347 348 353 337 344 333 317 310 303 313 316 333 350 354 6 9 50 353 115 79 295 205 199 200 180 171 198 209 233 262 274 271 264 260 258